Tracking 23758 objects as of 27-Oct-2021
HD Live streaming from Space Station
objects crossing your sky now

YAOGAN 30 DEB

Track YAOGAN 30 DEB now!
10-day predictions


NORAD ID: 42677
Int'l Code: 2016-029C
Perigee: 640.3 km
Apogee: 1,012.8 km
Inclination: 98.0 °
Period: 101.3 minutes
Semi major axis: 7197 km
RCS: Unknown
Launch date: May 15, 2016
Source: People's Republic of China (PRC)
Launch site: Jiuquan Satellite Launch Center, China (JSC)

Note: This is SATELLITE DEBRIS
aabbcc
Your satellite tracking list
Your tracking list is empty




NASA's NSSDC Master Catalog

Two Line Element Set (TLE):
1 42677U 16029C   21299.47175950  .00000617  00000-0  21294-3 0  9990
2 42677  97.9877 187.3186 0258811  57.6553 304.9400 14.21759470270363
Source of the keplerian elements: AFSPC